Gilmer, TX

2:11 AM CST on December 08, 2016 (GMT -0600)
Gilmer

Weather History for KJXI - September, 2013

Change the Weather History Date:

Monday, September 2, 2013

  Actual Average (KGGG) Record (KGGG)
Temperature  
Mean Temperature 82 °F 80 °F  
Max Temperature 91 °F 92 °F 109 °F (1939)
Min Temperature 73 °F 69 °F 50 °F (1919)
Degree Days  
Heating Degree Days 0 0  
Month to date heating degree days 0  
Since 1 July heating degree days 0  
Cooling Degree Days 17 15  
Month to date cooling degree days 31  
Year to date cooling degree days 1971  
Growing Degree Days 32 (Base 50)    
Moisture  
Dew Point 73 °F    
Average Humidity 76    
Maximum Humidity 100    
Minimum Humidity 52    
Precipitation  
Precipitation 0.32 in 0.10 in 3.55 in (1981)
Month to date precipitation 0.20  
Year to date precipitation 30.85  
Snow  
Snow 0.00 in - - ()
Month to date snowfall  
Since 1 July snowfall  
Since 1 September snowfall  
Snow Depth -    
Sea Level Pressure  
Sea Level Pressure 29.94 in    
Wind  
Wind Speed - (North)    
Max Wind Speed -    
Max Gust Speed -    
Visibility 9 miles    
Events Rain    
T = Trace of Precipitation, MM = Missing Value Source: NWS Daily Summary

Daily Weather History Graph

Daily Weather History Graph

Search for Another Location

Airport or City:

Trip Planner

Search our weather history database for the weather conditions in past years. The results will help you decide how hot, cold, wet, or windy it might be!

Date:

Astronomy

Sep. 02, 2013 Rise Set
Actual Time 6:55 AM CDT 7:42 PM CDT
Civil Twilight 6:30 AM CDT 8:07 PM CDT
Nautical Twilight 6:00 AM CDT 8:37 PM CDT
Astronomical Twilight 5:30 AM CDT 9:07 PM CDT
Moon 4:18 AM CDT (9/2) 5:52 PM CDT (9/2)
Length of Visible Light 13h 37m
Length of Day
12h 47m
Waning Crescent, 8% of the Moon is Illuminated
Sep 2
Waning Crescent
Sep 5
New
Sep 12
First Quarter
Sep 19
Full
Sep 26
Last Quarter

Hourly Weather History & Observations

Time (CDT) Temp. Heat Index Dew Point Humidity Pressure Visibility Wind Dir Wind Speed Gust Speed Precip Events Conditions
12:15 AM 80.6 °F 83.9 °F 69.8 °F 70% 29.91 in 10.0 mi North - - N/A   Clear
12:35 AM 82.4 °F 86.3 °F 69.8 °F 66% 29.92 in 10.0 mi North - - N/A   Clear
12:55 AM 82.4 °F 86.3 °F 69.8 °F 66% 29.91 in 10.0 mi North - - N/A   Clear
1:15 AM 82.4 °F 86.3 °F 69.8 °F 66% 29.91 in 10.0 mi North - - N/A   Clear
1:35 AM 80.6 °F 83.9 °F 69.8 °F 70% 29.91 in 10.0 mi North - - N/A   Clear
1:55 AM 82.4 °F 86.3 °F 69.8 °F 66% 29.91 in 10.0 mi North - - N/A   Clear
2:15 AM 80.6 °F 84.6 °F 71.6 °F 74% 29.91 in 10.0 mi North - - N/A   Clear
2:35 AM 80.6 °F 83.9 °F 69.8 °F 70% 29.90 in 10.0 mi North - - N/A   Clear
2:55 AM 78.8 °F - 71.6 °F 78% 29.90 in 10.0 mi North - - N/A   Clear
3:15 AM 78.8 °F - 71.6 °F 78% 29.90 in 10.0 mi North - - N/A   Clear
3:35 AM 80.6 °F 84.6 °F 71.6 °F 74% 29.90 in 10.0 mi North - - N/A   Clear
3:55 AM 80.6 °F 84.6 °F 71.6 °F 74% 29.90 in 10.0 mi North - - N/A   Clear
4:15 AM 80.6 °F 84.6 °F 71.6 °F 74% 29.90 in 10.0 mi North - - N/A   Clear
4:35 AM 80.6 °F 84.6 °F 71.6 °F 74% 29.91 in 10.0 mi North - - N/A   Clear
4:55 AM 78.8 °F - 71.6 °F 78% 29.92 in 10.0 mi North - - N/A   Clear
5:15 AM 78.8 °F - 71.6 °F 78% 29.92 in 10.0 mi North - - N/A   Clear
5:35 AM 78.8 °F - 73.4 °F 83% 29.92 in 10.0 mi North - - N/A   Clear
5:55 AM 78.8 °F - 71.6 °F 78% 29.92 in 10.0 mi North - - N/A   Clear
6:15 AM 78.8 °F - 71.6 °F 78% 29.93 in 10.0 mi North - - N/A   Partly Cloudy
6:35 AM 78.8 °F - 71.6 °F 78% 29.93 in 10.0 mi North - - N/A   Partly Cloudy
6:55 AM 78.8 °F - 71.6 °F 78% 29.94 in 10.0 mi North - - N/A   Clear
7:15 AM 78.8 °F - 71.6 °F 78% 29.96 in 10.0 mi North - - N/A   Clear
7:35 AM 78.8 °F - 71.6 °F 78% 29.99 in 10.0 mi North - - N/A   Scattered Clouds
7:55 AM 78.8 °F - 71.6 °F 78% 29.99 in 9.0 mi North - - N/A Rain Light Rain
8:15 AM 77.0 °F - 73.4 °F 89% 30.01 in 3.0 mi North - - N/A Rain Rain
8:35 AM 75.2 °F - 73.4 °F 94% 30.01 in 1.5 mi North - - 0.10 in Rain Heavy Rain
8:55 AM 75.2 °F - 75.2 °F 100% 30.01 in 1.8 mi North - - 0.13 in Rain Rain
9:15 AM 75.2 °F - 75.2 °F 100% 30.02 in 1.8 mi North - - 0.09 in Rain Heavy Rain
9:35 AM 75.2 °F - 75.2 °F 100% 30.04 in 3.0 mi North - - 0.14 in Rain Rain
9:55 AM 73.4 °F - 73.4 °F 100% 30.03 in 5.0 mi North - - 0.15 in Rain Heavy Rain
10:15 AM 73.4 °F - 73.4 °F 100% 30.01 in 4.0 mi North - - 0.04 in   Drizzle
10:35 AM 73.4 °F - 71.6 °F 94% 29.99 in 8.0 mi North - - 0.04 in Rain Light Rain
10:55 AM 73.4 °F - 71.6 °F 94% 29.99 in 10.0 mi North - - 0.04 in   Clear
11:15 AM 75.2 °F - 73.4 °F 94% 30.00 in 8.0 mi North - - N/A   Drizzle
11:35 AM 75.2 °F - 73.4 °F 94% 30.00 in 9.0 mi North - - N/A   Clear
11:55 AM 78.8 °F - 75.2 °F 89% 30.00 in 10.0 mi North - - N/A   Clear
12:15 PM 78.8 °F - 75.2 °F 89% 29.99 in 10.0 mi North - - N/A   Clear
12:35 PM 80.6 °F 86.2 °F 75.2 °F 84% 29.99 in 10.0 mi North - - N/A   Clear
12:55 PM 80.6 °F 87.1 °F 77.0 °F 89% 29.98 in 10.0 mi North - - N/A   Clear
1:15 PM 82.4 °F 89.5 °F 75.2 °F 79% 29.98 in 10.0 mi North - - N/A   Clear
1:35 PM 82.4 °F 89.5 °F 75.2 °F 79% 29.97 in 10.0 mi North - - N/A   Clear
1:55 PM 84.2 °F 92.3 °F 75.2 °F 74% 29.97 in 10.0 mi North - - N/A   Clear
2:15 PM 86.0 °F 93.4 °F 73.4 °F 66% 29.97 in 10.0 mi North - - N/A   Clear
2:35 PM 87.8 °F 95.6 °F 73.4 °F 62% 29.96 in 10.0 mi North - - N/A   Clear
2:55 PM 87.8 °F 95.6 °F 73.4 °F 62% 29.95 in 10.0 mi North - - N/A   Clear
3:15 PM 89.6 °F 98.2 °F 73.4 °F 59% 29.94 in 10.0 mi North - - N/A   Clear
3:35 PM 89.6 °F 96.2 °F 71.6 °F 55% 29.93 in 10.0 mi North - - N/A   Clear
3:55 PM 91.4 °F 98.4 °F 71.6 °F 52% 29.93 in 10.0 mi North - - N/A   Clear
4:15 PM 89.6 °F 96.2 °F 71.6 °F 55% 29.92 in 10.0 mi North - - N/A   Clear
4:35 PM 89.6 °F 96.2 °F 71.6 °F 55% 29.91 in 10.0 mi North - - N/A   Clear
4:55 PM 91.4 °F 98.4 °F 71.6 °F 52% 29.90 in 10.0 mi North - - N/A   Clear
5:15 PM 89.6 °F 96.2 °F 71.6 °F 55% 29.90 in 10.0 mi North - - N/A   Clear
5:35 PM 89.6 °F 94.7 °F 69.8 °F 52% 29.90 in 10.0 mi North - - N/A   Clear
5:55 PM 91.4 °F 98.4 °F 71.6 °F 52% 29.90 in 10.0 mi North - - N/A   Clear
6:15 PM 89.6 °F 98.2 °F 73.4 °F 59% 29.90 in 10.0 mi North - - N/A   Clear
6:35 PM 89.6 °F 98.2 °F 73.4 °F 59% 29.89 in 10.0 mi North - - N/A   Clear
6:55 PM 89.6 °F 98.2 °F 73.4 °F 59% 29.89 in 10.0 mi North - - N/A   Clear
7:15 PM 87.8 °F 95.6 °F 73.4 °F 62% 29.89 in 10.0 mi North - - N/A   Clear
7:35 PM 87.8 °F 95.6 °F 73.4 °F 62% 29.89 in 10.0 mi North - - N/A Rain Rain
7:55 PM 84.2 °F 92.3 °F 75.2 °F 74% 29.88 in 10.0 mi North - - N/A Rain Light Rain
8:15 PM 84.2 °F 92.3 °F 75.2 °F 74% 29.90 in 10.0 mi North - - N/A   Clear
8:35 PM 82.4 °F 89.5 °F 75.2 °F 79% 29.90 in 10.0 mi North - - N/A   Clear
8:55 PM 82.4 °F 89.5 °F 75.2 °F 79% 29.90 in 10.0 mi North - - N/A   Clear
9:35 PM 80.6 °F 86.2 °F 75.2 °F 84% 29.92 in 10.0 mi North - - N/A   Clear
9:55 PM 80.6 °F 86.2 °F 75.2 °F 84% 29.92 in 9.0 mi North - - N/A   Clear
10:15 PM 80.6 °F 86.2 °F 75.2 °F 84% 29.93 in 9.0 mi North - - N/A   Clear
10:35 PM 78.8 °F - 75.2 °F 89% 29.93 in 10.0 mi North - - N/A   Clear
10:55 PM 78.8 °F - 75.2 °F 89% 29.93 in 10.0 mi North - - N/A   Clear
11:15 PM 78.8 °F - 75.2 °F 89% 29.93 in 10.0 mi North - - N/A   Clear
11:35 PM 78.8 °F - 75.2 °F 89% 29.94 in 9.0 mi North - - N/A   Clear
11:55 PM 78.8 °F - 75.2 °F 89% 29.94 in 10.0 mi North - - N/A   Clear